• In Belarus
  • List of Countries
  • For 7 days
  • Water Temperature
  • Satellite Maps
  • Weather Map
  • Weather Widgets
  • user-avatar
    Login

    Hourly Weather Bogorodchany

    Today, 22 October, Sunday

    Time Temperature Precipitation Wind Pressure Humidity
    00:00 +9°C° 0 mm 2 mps 731 mmHg 89%
    01:00 +9°C° 0 mm 2 mps 731 mmHg 91%
    02:00 +8°C° 0 mm 2 mps 732 mmHg 92%
    03:00 +8°C° 0 mm 2 mps 732 mmHg 93%
    04:00 +8°C° 0 mm 2 mps 732 mmHg 93%
    05:00 +9°C° 0 mm 1 mps 732 mmHg 93%
    06:00 +9°C° 0 mm 1 mps 732 mmHg 93%
    07:00 +10°C° 0 mm 1 mps 732 mmHg 92%
    08:00 +10°C° 0 mm 1 mps 732 mmHg 92%
    09:00 +11°C° 0 mm 1 mps 732 mmHg 88%
    10:00 +11°C° 0 mm 1 mps 733 mmHg 84%
    11:00 +12°C° 0 mm 1 mps 733 mmHg 80%
    12:00 +12°C° 0 mm 1 mps 732 mmHg 78%
    13:00 +13°C° 0 mm 2 mps 732 mmHg 75%
    14:00 +13°C° 0 mm 2 mps 732 mmHg 72%
    15:00 +13°C° 0 mm 2 mps 731 mmHg 76%
    16:00 +12°C° 0 mm 2 mps 731 mmHg 79%
    17:00 +10°C° 0 mm 3 mps 731 mmHg 83%
    18:00 +9°C° 0 mm 3 mps 731 mmHg 85%
    19:00 +9°C° 0 mm 3 mps 731 mmHg 87%
    20:00 +8°C° 0 mm 3 mps 731 mmHg 89%
    21:00 +8°C° 0 mm 3 mps 731 mmHg 88%
    22:00 +8°C° 0 mm 3 mps 731 mmHg 87%
    23:00 +8°C° 0 mm 3 mps 730 mmHg 86%

    Tomorrow, 23 October, Monday

    Time Temperature Precipitation Wind Pressure Humidity
    00:00 +8°C° 0 mm 3 mps 730 mmHg 86%
    01:00 +8°C° 0 mm 3 mps 730 mmHg 87%
    02:00 +7°C° 0 mm 3 mps 730 mmHg 87%
    03:00 +7°C° 0.1 mm 3 mps 729 mmHg 88%
    04:00 +7°C° 0.1 mm 3 mps 729 mmHg 89%
    05:00 +7°C° 0.1 mm 3 mps 729 mmHg 90%
    06:00 +7°C° 0.2 mm 3 mps 728 mmHg 90%
    07:00 +7°C° 0.2 mm 3 mps 728 mmHg 89%
    08:00 +7°C° 0.2 mm 3 mps 728 mmHg 89%
    09:00 +7°C° 0.2 mm 3 mps 728 mmHg 87%
    10:00 +8°C° 0.2 mm 3 mps 728 mmHg 85%
    11:00 +9°C° 0.2 mm 3 mps 728 mmHg 83%
    12:00 +8°C° 0.3 mm 4 mps 728 mmHg 83%
    13:00 +8°C° 0.3 mm 4 mps 728 mmHg 83%
    14:00 +8°C° 0.3 mm 4 mps 727 mmHg 83%
    15:00 +8°C° 0.5 mm 4 mps 727 mmHg 85%
    16:00 +9°C° 0.5 mm 3 mps 727 mmHg 88%
    17:00 +9°C° 0.5 mm 3 mps 728 mmHg 90%
    18:00 +8°C° 0.7 mm 3 mps 728 mmHg 90%
    19:00 +7°C° 0.7 mm 4 mps 728 mmHg 90%
    20:00 +7°C° 0.7 mm 4 mps 728 mmHg 91%
    21:00 +7°C° 0.5 mm 4 mps 729 mmHg 90%
    22:00 +7°C° 0.5 mm 4 mps 729 mmHg 90%
    23:00 +6°C° 0.5 mm 4 mps 729 mmHg 90%

    Day after tomorrow, 24 October, Tuesday

    Time Temperature Precipitation Wind Pressure Humidity
    00:00 +6°C° 0.7 mm 4 mps 729 mmHg 90%
    01:00 +6°C° 0.7 mm 4 mps 730 mmHg 90%
    02:00 +6°C° 0.7 mm 4 mps 730 mmHg 90%
    03:00 +5°C° 0.5 mm 4 mps 730 mmHg 91%
    04:00 +5°C° 0.5 mm 4 mps 730 mmHg 91%
    05:00 +5°C° 0.5 mm 4 mps 731 mmHg 91%
    06:00 +5°C° 0.4 mm 4 mps 731 mmHg 91%
    07:00 +5°C° 0.4 mm 4 mps 732 mmHg 91%
    08:00 +4°C° 0.4 mm 4 mps 732 mmHg 91%
    09:00 +4°C° 0.3 mm 4 mps 733 mmHg 90%
    10:00 +4°C° 0.3 mm 4 mps 733 mmHg 89%
    11:00 +4°C° 0.3 mm 4 mps 734 mmHg 88%
    12:00 +4°C° 0.1 mm 4 mps 734 mmHg 86%
    13:00 +4°C° 0.1 mm 3 mps 734 mmHg 85%
    14:00 +4°C° 0.1 mm 3 mps 735 mmHg 83%
    15:00 +4°C° 0.1 mm 3 mps 735 mmHg 83%
    16:00 +4°C° 0.1 mm 3 mps 736 mmHg 84%
    17:00 +5°C° 0.1 mm 2 mps 736 mmHg 84%
    18:00 +5°C° 0.1 mm 2 mps 736 mmHg 84%
    19:00 +4°C° 0.1 mm 2 mps 737 mmHg 85%
    20:00 +4°C° 0.1 mm 2 mps 737 mmHg 85%
    21:00 +4°C° 0 mm 2 mps 738 mmHg 85%
    22:00 +4°C° 0 mm 2 mps 738 mmHg 86%
    23:00 +4°C° 0 mm 2 mps 738 mmHg 86%

    25 October, Wednesday

    Time Temperature Precipitation Wind Pressure Humidity
    00:00 +4°C° 0 mm 2 mps 739 mmHg 86%
    01:00 +3°C° 0 mm 2 mps 739 mmHg 86%
    02:00 +3°C° 0 mm 2 mps 739 mmHg 86%
    03:00 +3°C° 0 mm 2 mps 739 mmHg 87%
    04:00 +3°C° 0 mm 1 mps 739 mmHg 88%
    05:00 +3°C° 0 mm 1 mps 739 mmHg 89%
    06:00 +3°C° 0 mm 1 mps 740 mmHg 88%
    07:00 +3°C° 0 mm 1 mps 740 mmHg 86%
    08:00 +4°C° 0 mm 1 mps 741 mmHg 85%
    09:00 +5°C° 0 mm 1 mps 741 mmHg 78%
    10:00 +5°C° 0 mm 2 mps 741 mmHg 72%
    11:00 +7°C° 0 mm 2 mps 741 mmHg 65%
    12:00 +8°C° 0 mm 2 mps 740 mmHg 63%
    13:00 +8°C° 0 mm 2 mps 740 mmHg 61%
    14:00 +9°C° 0 mm 2 mps 740 mmHg 58%
    15:00 +8°C° 0 mm 2 mps 740 mmHg 62%
    16:00 +7°C° 0 mm 2 mps 740 mmHg 67%
    17:00 +6°C° 0 mm 2 mps 740 mmHg 71%
    18:00 +5°C° 0 mm 2 mps 740 mmHg 73%
    19:00 +4°C° 0 mm 2 mps 740 mmHg 74%
    20:00 +4°C° 0 mm 2 mps 741 mmHg 76%
    21:00 +4°C° 0 mm 2 mps 741 mmHg 77%
    22:00 +4°C° 0 mm 2 mps 741 mmHg 78%
    23:00 +4°C° 0 mm 2 mps 740 mmHg 78%

    26 October, Thursday

    Time Temperature Precipitation Wind Pressure Humidity
    00:00 +4°C° 0 mm 2 mps 740 mmHg 79%
    01:00 +4°C° 0 mm 2 mps 740 mmHg 80%
    02:00 +4°C° 0 mm 2 mps 740 mmHg 81%
    03:00 +4°C° 0 mm 2 mps 740 mmHg 81%
    04:00 +5°C° 0 mm 2 mps 740 mmHg 80%
    05:00 +5°C° 0 mm 2 mps 739 mmHg 80%
    06:00 +5°C° 0 mm 2 mps 739 mmHg 78%
    07:00 +6°C° 0 mm 2 mps 739 mmHg 77%
    08:00 +7°C° 0 mm 2 mps 739 mmHg 76%
    09:00 +9°C° 0 mm 2 mps 739 mmHg 70%
    10:00 +12°C° 0 mm 2 mps 739 mmHg 65%
    11:00 +13°C° 0 mm 3 mps 739 mmHg 59%
    12:00 +13°C° 0 mm 3 mps 739 mmHg 60%
    13:00 +13°C° 0 mm 3 mps 738 mmHg 61%
    14:00 +13°C° 0 mm 3 mps 738 mmHg 61%
    15:00 +13°C° 0 mm 3 mps 738 mmHg 64%
    16:00 +12°C° 0 mm 3 mps 737 mmHg 66%
    17:00 +11°C° 0 mm 3 mps 737 mmHg 68%
    18:00 +10°C° 0 mm 3 mps 737 mmHg 70%
    19:00 +9°C° 0 mm 3 mps 737 mmHg 73%
    20:00 +8°C° 0 mm 3 mps 737 mmHg 75%
    21:00 +8°C° 0 mm 3 mps 737 mmHg 76%
    22:00 +8°C° 0 mm 3 mps 737 mmHg 76%
    23:00 +8°C° 0 mm 3 mps 737 mmHg 77%

    27 October, Friday

    Time Temperature Precipitation Wind Pressure Humidity
    00:00 +8°C° 0 mm 3 mps 736 mmHg 78%
    01:00 +8°C° 0 mm 3 mps 736 mmHg 78%
    02:00 +8°C° 0 mm 3 mps 735 mmHg 79%
    03:00 +8°C° 0 mm 3 mps 735 mmHg 78%
    04:00 +8°C° 0 mm 3 mps 734 mmHg 77%
    05:00 +9°C° 0 mm 3 mps 733 mmHg 77%
    06:00 +8°C° 0 mm 4 mps 733 mmHg 76%
    07:00 +8°C° 0 mm 4 mps 732 mmHg 76%
    08:00 +8°C° 0 mm 4 mps 731 mmHg 76%
    09:00 +10°C° 0 mm 5 mps 731 mmHg 72%
    10:00 +11°C° 0 mm 6 mps 730 mmHg 67%
    11:00 +12°C° 0 mm 7 mps 730 mmHg 63%
    12:00 +12°C° 0 mm 7 mps 729 mmHg 63%
    13:00 +12°C° 0 mm 7 mps 728 mmHg 63%
    14:00 +12°C° 0 mm 7 mps 727 mmHg 63%
    15:00 +11°C° 0.1 mm 6 mps 727 mmHg 67%
    16:00 +11°C° 0.1 mm 6 mps 727 mmHg 71%
    17:00 +10°C° 0.1 mm 5 mps 727 mmHg 76%
    18:00 +9°C° 0.5 mm 5 mps 727 mmHg 80%
    19:00 +8°C° 0.5 mm 5 mps 727 mmHg 84%
    20:00 +7°C° 0.5 mm 5 mps 727 mmHg 88%
    21:00 +7°C° 0.1 mm 4 mps 727 mmHg 88%
    22:00 +6°C° 0.1 mm 4 mps 727 mmHg 88%
    23:00 +6°C° 0.1 mm 4 mps 727 mmHg 88%
    Show more